When you browse on this site, cookies collect data to enhance your experience and personalize the content and advertising you see.
Visit our Privacy Policy to learn more. By continuing to use the site, you agree to this use of cookies and data.
  • In Austria
  • List of Countries
  • For 7 days
  • Water Temperature
  • Weather Map
  • News
  • Weather Widgets
  • user-avatar
    Login

    Hourly Weather Sidi Bu-l-Abbas

    Today, 29 May, Friday

    Time Temperature Precipitation Wind Pressure Humidity
    00:00 +22°C° 0 mm 3 mps 721 mmHg 72%
    01:00 +21°C° 0 mm 2 mps 721 mmHg 76%
    02:00 +21°C° 0 mm 2 mps 720 mmHg 80%
    03:00 +21°C° 0 mm 1 mps 720 mmHg 84%
    04:00 +21°C° 0 mm 1 mps 720 mmHg 83%
    05:00 +20°C° 0 mm 2 mps 720 mmHg 81%
    06:00 +21°C° 0 mm 2 mps 720 mmHg 76%
    07:00 +23°C° 0 mm 2 mps 720 mmHg 69%
    08:00 +25°C° 0 mm 1 mps 720 mmHg 62%
    09:00 +26°C° 0 mm 1 mps 720 mmHg 54%
    10:00 +27°C° 0 mm 2 mps 720 mmHg 52%
    11:00 +28°C° 0 mm 3 mps 720 mmHg 50%
    12:00 +30°C° 0 mm 4 mps 720 mmHg 45%
    13:00 +30°C° 0 mm 5 mps 719 mmHg 47%
    14:00 +29°C° 0 mm 5 mps 719 mmHg 49%
    15:00 +29°C° 0 mm 5 mps 718 mmHg 50%
    16:00 +28°C° 0 mm 5 mps 718 mmHg 53%
    17:00 +27°C° 0 mm 5 mps 717 mmHg 56%
    18:00 +25°C° 0 mm 4 mps 717 mmHg 59%
    19:00 +24°C° 0 mm 3 mps 718 mmHg 60%
    20:00 +24°C° 0 mm 2 mps 718 mmHg 62%
    21:00 +23°C° 0 mm 1 mps 718 mmHg 63%
    22:00 +22°C° 0 mm 1 mps 718 mmHg 64%
    23:00 +22°C° 0 mm 1 mps 718 mmHg 66%

    Tomorrow, 30 May, Saturday

    Time Temperature Precipitation Wind Pressure Humidity
    00:00 +22°C° 0 mm 1 mps 718 mmHg 67%
    01:00 +21°C° 0 mm 1 mps 718 mmHg 69%
    02:00 +20°C° 0 mm 1 mps 718 mmHg 72%
    03:00 +20°C° 0 mm 1 mps 718 mmHg 74%
    04:00 +20°C° 0 mm 1 mps 718 mmHg 75%
    05:00 +19°C° 0 mm 1 mps 718 mmHg 75%
    06:00 +19°C° 0 mm 1 mps 718 mmHg 76%
    07:00 +20°C° 0 mm 1 mps 718 mmHg 66%
    08:00 +21°C° 0 mm 2 mps 719 mmHg 56%
    09:00 +23°C° 0 mm 2 mps 719 mmHg 47%
    10:00 +25°C° 0 mm 2 mps 719 mmHg 42%
    11:00 +26°C° 0 mm 3 mps 719 mmHg 37%
    12:00 +28°C° 0 mm 4 mps 719 mmHg 31%
    13:00 +29°C° 0 mm 4 mps 718 mmHg 32%
    14:00 +29°C° 0 mm 5 mps 718 mmHg 32%
    15:00 +30°C° 0 mm 5 mps 718 mmHg 32%
    16:00 +29°C° 0 mm 5 mps 717 mmHg 36%
    17:00 +28°C° 0 mm 5 mps 717 mmHg 41%
    18:00 +27°C° 0 mm 5 mps 716 mmHg 45%
    19:00 +26°C° 0 mm 4 mps 717 mmHg 47%
    20:00 +25°C° 0 mm 3 mps 717 mmHg 50%
    21:00 +24°C° 0 mm 1 mps 718 mmHg 52%
    22:00 +24°C° 0 mm 1 mps 718 mmHg 52%
    23:00 +24°C° 0 mm 1 mps 717 mmHg 53%

    Day after tomorrow, 31 May, Sunday

    Time Temperature Precipitation Wind Pressure Humidity
    00:00 +23°C° 0 mm 1 mps 717 mmHg 53%
    01:00 +23°C° 0 mm 1 mps 717 mmHg 54%
    02:00 +23°C° 0 mm 1 mps 716 mmHg 55%
    03:00 +20°C° 0 mm 0 mps 716 mmHg 57%
    04:00 +23°C° 0 mm 1 mps 716 mmHg 54%
    05:00 +23°C° 0 mm 1 mps 716 mmHg 51%
    06:00 +24°C° 0 mm 2 mps 716 mmHg 49%
    07:00 +25°C° 0 mm 2 mps 716 mmHg 44%
    08:00 +27°C° 0 mm 2 mps 716 mmHg 38%
    09:00 +29°C° 0 mm 2 mps 717 mmHg 33%
    10:00 +29°C° 0.1 mm 3 mps 717 mmHg 33%
    11:00 +30°C° 0.1 mm 4 mps 716 mmHg 33%
    12:00 +32°C° 0.1 mm 5 mps 716 mmHg 33%
    13:00 +30°C° 0 mm 6 mps 716 mmHg 37%
    14:00 +29°C° 0 mm 6 mps 716 mmHg 41%
    15:00 +28°C° 0 mm 7 mps 716 mmHg 45%
    16:00 +27°C° 0 mm 6 mps 717 mmHg 49%
    17:00 +26°C° 0 mm 5 mps 717 mmHg 53%
    18:00 +23°C° 0 mm 5 mps 717 mmHg 57%
    19:00 +24°C° 0 mm 3 mps 718 mmHg 58%
    20:00 +23°C° 0 mm 2 mps 718 mmHg 59%
    21:00 +23°C° 0 mm 1 mps 718 mmHg 60%
    22:00 +23°C° 0 mm 1 mps 718 mmHg 61%
    23:00 +22°C° 0 mm 1 mps 718 mmHg 62%

    1 June, Monday

    Time Temperature Precipitation Wind Pressure Humidity
    00:00 +20°C° 0 mm 0 mps 718 mmHg 63%
    01:00 +22°C° 0 mm 1 mps 718 mmHg 63%
    02:00 +22°C° 0 mm 1 mps 718 mmHg 64%
    03:00 +22°C° 0 mm 1 mps 718 mmHg 64%
    04:00 +22°C° 0 mm 1 mps 718 mmHg 64%
    05:00 +22°C° 0 mm 1 mps 718 mmHg 63%
    06:00 +22°C° 0 mm 1 mps 718 mmHg 63%
    07:00 +23°C° 0 mm 1 mps 718 mmHg 56%
    08:00 +25°C° 0 mm 1 mps 719 mmHg 48%
    09:00 +27°C° 0 mm 1 mps 719 mmHg 41%
    10:00 +28°C° 0 mm 1 mps 719 mmHg 37%
    11:00 +30°C° 0 mm 2 mps 720 mmHg 34%
    12:00 +31°C° 0 mm 3 mps 720 mmHg 30%
    13:00 +31°C° 0 mm 3 mps 720 mmHg 29%
    14:00 +33°C° 0 mm 4 mps 720 mmHg 28%
    15:00 +33°C° 0 mm 4 mps 719 mmHg 27%
    16:00 +32°C° 0 mm 4 mps 719 mmHg 29%
    17:00 +30°C° 0 mm 4 mps 719 mmHg 32%
    18:00 +29°C° 0 mm 4 mps 719 mmHg 34%
    19:00 +28°C° 0 mm 3 mps 719 mmHg 37%
    20:00 +27°C° 0 mm 2 mps 719 mmHg 40%
    21:00 +26°C° 0 mm 1 mps 720 mmHg 43%
    22:00 +25°C° 0 mm 1 mps 719 mmHg 45%
    23:00 +25°C° 0 mm 1 mps 719 mmHg 46%

    2 June, Tuesday

    Time Temperature Precipitation Wind Pressure Humidity
    00:00 +24°C° 0 mm 1 mps 719 mmHg 47%
    01:00 +24°C° 0 mm 1 mps 719 mmHg 49%
    02:00 +21°C° 0 mm 0 mps 719 mmHg 51%
    03:00 +20°C° 0 mm 0 mps 718 mmHg 53%
    04:00 +21°C° 0 mm 0 mps 719 mmHg 53%
    05:00 +21°C° 0 mm 0 mps 719 mmHg 53%
    06:00 +21°C° 0 mm 0 mps 719 mmHg 53%
    07:00 +25°C° 0 mm 1 mps 719 mmHg 46%
    08:00 +27°C° 0 mm 1 mps 719 mmHg 39%
    09:00 +29°C° 0 mm 2 mps 720 mmHg 32%
    10:00 +31°C° 0 mm 2 mps 720 mmHg 29%
    11:00 +33°C° 0 mm 3 mps 720 mmHg 25%
    12:00 +35°C° 0 mm 3 mps 719 mmHg 21%
    13:00 +35°C° 0 mm 4 mps 719 mmHg 23%
    14:00 +35°C° 0 mm 5 mps 718 mmHg 24%
    15:00 +35°C° 0 mm 6 mps 718 mmHg 25%
    16:00 +34°C° 0 mm 5 mps 717 mmHg 29%
    17:00 +32°C° 0 mm 5 mps 717 mmHg 34%
    18:00 +29°C° 0 mm 4 mps 717 mmHg 39%
    19:00 +28°C° 0 mm 3 mps 717 mmHg 45%
    20:00 +26°C° 0 mm 2 mps 717 mmHg 52%
    21:00 +25°C° 0 mm 2 mps 717 mmHg 58%
    22:00 +24°C° 0 mm 2 mps 717 mmHg 62%
    23:00 +23°C° 0 mm 2 mps 717 mmHg 65%

    3 June, Wednesday

    Time Temperature Precipitation Wind Pressure Humidity
    00:00 +22°C° 0 mm 3 mps 717 mmHg 68%
    01:00 +21°C° 0 mm 3 mps 716 mmHg 72%
    02:00 +20°C° 0 mm 3 mps 716 mmHg 75%
    03:00 +20°C° 0 mm 3 mps 716 mmHg 78%
    04:00 +20°C° 0 mm 3 mps 716 mmHg 77%
    05:00 +20°C° 0 mm 3 mps 716 mmHg 75%
    06:00 +20°C° 0 mm 3 mps 716 mmHg 74%
    07:00 +22°C° 0.1 mm 3 mps 717 mmHg 66%
    08:00 +24°C° 0.1 mm 3 mps 717 mmHg 57%
    09:00 +26°C° 0.1 mm 3 mps 717 mmHg 49%
    10:00 +26°C° 0 mm 4 mps 717 mmHg 47%
    11:00 +27°C° 0 mm 5 mps 716 mmHg 45%
    12:00 +28°C° 0 mm 6 mps 716 mmHg 43%
    13:00 +28°C° 0.1 mm 6 mps 716 mmHg 43%
    14:00 +27°C° 0.1 mm 6 mps 715 mmHg 44%
    15:00 +27°C° 0.1 mm 6 mps 715 mmHg 45%
    16:00 +27°C° 0 mm 5 mps 714 mmHg 44%
    17:00 +26°C° 0 mm 5 mps 714 mmHg 44%
    18:00 +25°C° 0 mm 4 mps 714 mmHg 43%
    19:00 +25°C° 0 mm 3 mps 714 mmHg 45%
    20:00 +24°C° 0 mm 2 mps 714 mmHg 47%
    21:00 +24°C° 0 mm 1 mps 715 mmHg 48%
    22:00 +24°C° 0 mm 2 mps 715 mmHg 48%
    23:00 +23°C° 0 mm 2 mps 714 mmHg 48%
    Show more